This is the latest recevied weather packets stored in our database for station/object ED5YAL-15. If no packets are shown the sender has not sent any weather packets the latest 10 day(s).
| Time | Temp. | Humidity | Pressure | Rain* | Wind** | Luminosity | Snow |
|---|---|---|---|---|---|---|---|
| 1777752110 | 17.22° C | 57% | 1020.3 hPa | - | - | - | - |
| 1777751209 | 16.67° C | 57% | 1020.2 hPa | - | - | - | - |
| 1777750308 | 16.67° C | 58% | 1020.1 hPa | - | - | - | - |
| 1777749408 | 16.67° C | 58% | 1020.2 hPa | - | - | - | - |
| 1777748507 | 16.11° C | 58% | 1020 hPa | - | - | - | - |
| 1777747606 | 16.67° C | 58% | 1020.1 hPa | - | - | - | - |
| 1777746708 | 17.22° C | 58% | 1020.1 hPa | - | - | - | - |
| 1777745804 | 17.78° C | 58% | 1020.1 hPa | - | - | - | - |
| 1777744903 | 17.78° C | 58% | 1020.1 hPa | - | - | - | - |
| 1777744003 | 16.67° C | 59% | 1020.1 hPa | - | - | - | - |
| 1777743102 | 16.11° C | 59% | 1020.6 hPa | - | - | - | - |
| 1777742201 | 16.11° C | 59% | 1020.2 hPa | - | - | - | - |
| 1777741300 | 16.67° C | 59% | 1020.5 hPa | - | - | - | - |
| 1777740399 | 17.22° C | 59% | 1020.3 hPa | - | - | - | - |
| 1777739498 | 16.67° C | 60% | 1020.6 hPa | - | - | - | - |
| 1777738598 | 17.22° C | 59% | 1020.5 hPa | - | - | - | - |
| 1777737697 | 18.33° C | 59% | 1020.8 hPa | - | - | - | - |
| 1777737039 | 18.89° C | 58% | 1020.9 hPa | - | - | - | - |
| 1777736861 | 18.89° C | 58% | 1020.9 hPa | - | - | - | - |
| 1777736796 | 18.89° C | 58% | 1020.9 hPa | - | - | - | - |
| 1777735900 | 18.33° C | 59% | 1020.9 hPa | - | - | - | - |
| 1777734994 | 17.22° C | 59% | 1021.2 hPa | - | - | - | - |
| 1777734094 | 17.22° C | 59% | 1021.6 hPa | - | - | - | - |
| 1777733193 | 18.33° C | 59% | 1021.6 hPa | - | - | - | - |
| 1777732292 | 20° C | 59% | 1021.5 hPa | - | - | - | - |
* Rain since midnight (hover to see other rain measurements)
** Current wind speed in m/s (hover to see current wind gust speed)